Year,Month,Day,Hour,Minute,Value (Times are PST for temperature in C)
2010,09,11,00,00,12.20
2010,09,11,00,01,12.20
2010,09,11,00,02,12.20
2010,09,11,00,03,12.20
2010,09,11,00,04,12.20
2010,09,11,00,05,12.20
2010,09,11,00,06,12.20
2010,09,11,00,07,12.10
2010,09,11,00,08,12.10
2010,09,11,00,09,12.10
2010,09,11,00,10,12.10
2010,09,11,00,11,12.10
2010,09,11,00,12,12.10
2010,09,11,00,13,12.10
2010,09,11,00,14,12.10
2010,09,11,00,15,12.10
2010,09,11,00,16,12.00
2010,09,11,00,17,12.00
2010,09,11,00,18,12.00
2010,09,11,00,19,12.00
2010,09,11,00,20,11.90
2010,09,11,00,21,11.90
2010,09,11,00,22,11.90
2010,09,11,00,23,11.90
2010,09,11,00,24,11.90
2010,09,11,00,25,11.90
2010,09,11,00,26,11.80
2010,09,11,00,27,11.80
2010,09,11,00,28,11.80
2010,09,11,00,29,11.80
2010,09,11,00,30,11.80
2010,09,11,00,31,11.70
2010,09,11,00,32,11.70
2010,09,11,00,33,11.70
2010,09,11,00,34,11.70
2010,09,11,00,35,11.70
2010,09,11,00,36,11.60
2010,09,11,00,37,11.60
2010,09,11,00,38,11.60
2010,09,11,00,39,11.60
2010,09,11,00,40,11.60
2010,09,11,00,41,11.60
2010,09,11,00,42,11.60
2010,09,11,00,43,11.50
2010,09,11,00,44,11.50
2010,09,11,00,45,11.50
2010,09,11,00,46,11.50
2010,09,11,00,47,11.50
2010,09,11,00,48,11.50
2010,09,11,00,49,11.40
2010,09,11,00,50,11.40
2010,09,11,00,51,11.40
2010,09,11,00,52,11.40
2010,09,11,00,53,11.40
2010,09,11,00,54,11.30
2010,09,11,00,55,11.30
2010,09,11,00,56,11.30
2010,09,11,00,57,11.20
2010,09,11,00,58,11.20
2010,09,11,00,59,11.20
2010,09,11,01,00,11.20
2010,09,11,01,01,11.10
2010,09,11,01,02,11.10
2010,09,11,01,03,11.10
2010,09,11,01,04,11.10
2010,09,11,01,05,11.00
2010,09,11,01,06,11.00
2010,09,11,01,07,10.90
2010,09,11,01,08,10.90
2010,09,11,01,09,10.90
2010,09,11,01,10,10.90
2010,09,11,01,11,10.80
2010,09,11,01,12,10.80
2010,09,11,01,13,10.80
2010,09,11,01,14,10.80
2010,09,11,01,15,10.80
2010,09,11,01,16,10.70
2010,09,11,01,17,10.70
2010,09,11,01,18,10.70
2010,09,11,01,19,10.70
2010,09,11,01,20,10.60
2010,09,11,01,21,10.60
2010,09,11,01,22,10.60
2010,09,11,01,23,10.60
2010,09,11,01,24,10.50
2010,09,11,01,25,10.50
2010,09,11,01,26,10.50
2010,09,11,01,27,10.40
2010,09,11,01,28,10.40
2010,09,11,01,29,10.40
2010,09,11,01,30,10.40
2010,09,11,01,31,10.40
2010,09,11,01,32,10.30
2010,09,11,01,33,10.30
2010,09,11,01,34,10.30
2010,09,11,01,35,10.30
2010,09,11,01,36,10.30
2010,09,11,01,37,10.20
2010,09,11,01,38,10.20
2010,09,11,01,39,10.20
2010,09,11,01,40,10.20
2010,09,11,01,41,10.10
2010,09,11,01,42,10.10
2010,09,11,01,43,10.10
2010,09,11,01,44,10.10
2010,09,11,01,45,10.00
2010,09,11,01,46,10.00
2010,09,11,01,47,10.00
2010,09,11,01,48,9.90
2010,09,11,01,49,9.90
2010,09,11,01,50,9.90
2010,09,11,01,51,9.90
2010,09,11,01,52,9.80
2010,09,11,01,53,9.80
2010,09,11,01,54,9.80
2010,09,11,01,55,9.80
2010,09,11,01,56,9.80
2010,09,11,01,57,9.80
2010,09,11,01,58,9.80
2010,09,11,01,59,9.80
2010,09,11,02,00,9.70
2010,09,11,02,01,9.70
2010,09,11,02,02,9.70
2010,09,11,02,03,9.70
2010,09,11,02,04,9.70
2010,09,11,02,05,9.60
2010,09,11,02,06,9.60
2010,09,11,02,07,9.60
2010,09,11,02,08,9.60
2010,09,11,02,09,9.60
2010,09,11,02,10,9.60
2010,09,11,02,11,9.50
2010,09,11,02,12,9.50
2010,09,11,02,13,9.50
2010,09,11,02,14,9.50
2010,09,11,02,15,9.40
2010,09,11,02,16,9.40
2010,09,11,02,17,9.40
2010,09,11,02,18,9.40
2010,09,11,02,19,9.40
2010,09,11,02,20,9.40
2010,09,11,02,21,9.40
2010,09,11,02,22,9.30
2010,09,11,02,23,9.30
2010,09,11,02,24,9.30
2010,09,11,02,25,9.30
2010,09,11,02,26,9.30
2010,09,11,02,27,9.30
2010,09,11,02,28,9.30
2010,09,11,02,29,9.30
2010,09,11,02,30,9.30
2010,09,11,02,31,9.30
2010,09,11,02,32,9.20
2010,09,11,02,33,9.20
2010,09,11,02,34,9.20
2010,09,11,02,35,9.20
2010,09,11,02,36,9.20
2010,09,11,02,37,9.30
2010,09,11,02,38,9.30
2010,09,11,02,39,9.30
2010,09,11,02,40,9.30
2010,09,11,02,41,9.30
2010,09,11,02,42,9.30
2010,09,11,02,43,9.30
2010,09,11,02,44,9.30
2010,09,11,02,45,9.30
2010,09,11,02,46,9.30
2010,09,11,02,47,9.30
2010,09,11,02,48,9.30
2010,09,11,02,49,9.30
2010,09,11,02,50,9.20
2010,09,11,02,51,9.20
2010,09,11,02,52,9.20
2010,09,11,02,53,9.20
2010,09,11,02,54,9.20
2010,09,11,02,55,9.20
2010,09,11,02,56,9.20
2010,09,11,02,57,9.20
2010,09,11,02,58,9.20
2010,09,11,02,59,9.20
2010,09,11,03,00,9.10
2010,09,11,03,01,9.10
2010,09,11,03,02,9.10
2010,09,11,03,03,9.10
2010,09,11,03,04,9.10
2010,09,11,03,05,9.10
2010,09,11,03,06,9.00
2010,09,11,03,07,9.00
2010,09,11,03,08,9.00
2010,09,11,03,09,9.00
2010,09,11,03,10,8.90
2010,09,11,03,11,8.90
2010,09,11,03,12,8.90
2010,09,11,03,13,8.90
2010,09,11,03,14,8.90
2010,09,11,03,15,8.90
2010,09,11,03,16,8.90
2010,09,11,03,17,8.80
2010,09,11,03,18,8.80
2010,09,11,03,19,8.80
2010,09,11,03,20,8.80
2010,09,11,03,21,8.80
2010,09,11,03,22,8.80
2010,09,11,03,23,8.80
2010,09,11,03,24,8.80
2010,09,11,03,25,8.80
2010,09,11,03,26,8.80
2010,09,11,03,27,8.80
2010,09,11,03,28,8.80
2010,09,11,03,29,8.80
2010,09,11,03,30,8.80
2010,09,11,03,31,8.80
2010,09,11,03,32,8.80
2010,09,11,03,33,8.80
2010,09,11,03,34,8.80
2010,09,11,03,35,8.90
2010,09,11,03,36,8.90
2010,09,11,03,37,8.90
2010,09,11,03,38,8.90
2010,09,11,03,39,8.90
2010,09,11,03,40,9.00
2010,09,11,03,41,9.00
2010,09,11,03,42,9.10
2010,09,11,03,43,9.10
2010,09,11,03,44,9.10
2010,09,11,03,45,9.10
2010,09,11,03,46,9.20
2010,09,11,03,47,9.20
2010,09,11,03,48,9.20
2010,09,11,03,49,9.20
2010,09,11,03,50,9.20
2010,09,11,03,51,9.20
2010,09,11,03,52,9.20
2010,09,11,03,53,9.20
2010,09,11,03,54,9.30
2010,09,11,03,55,9.30
2010,09,11,03,56,9.30
2010,09,11,03,57,9.30
2010,09,11,03,58,9.30
2010,09,11,03,59,9.30
2010,09,11,04,00,9.30
2010,09,11,04,01,9.40
2010,09,11,04,02,9.40
2010,09,11,04,03,9.30
2010,09,11,04,04,9.30
2010,09,11,04,05,9.30
2010,09,11,04,06,9.30
2010,09,11,04,07,9.30
2010,09,11,04,08,9.30
2010,09,11,04,09,9.30
2010,09,11,04,10,9.30
2010,09,11,04,11,9.30
2010,09,11,04,12,9.30
2010,09,11,04,13,9.30
2010,09,11,04,14,9.20
2010,09,11,04,15,9.20
2010,09,11,04,16,9.20
2010,09,11,04,17,9.20
2010,09,11,04,18,9.20
2010,09,11,04,19,9.20
2010,09,11,04,20,9.20
2010,09,11,04,21,9.20
2010,09,11,04,22,9.20
2010,09,11,04,23,9.30
2010,09,11,04,24,9.30
2010,09,11,04,25,9.30
2010,09,11,04,26,9.30
2010,09,11,04,27,9.30
2010,09,11,04,28,9.30
2010,09,11,04,29,9.30
2010,09,11,04,30,9.30
2010,09,11,04,31,9.30
2010,09,11,04,32,9.30
2010,09,11,04,33,9.30
2010,09,11,04,34,9.30
2010,09,11,04,35,9.30
2010,09,11,04,36,9.30
2010,09,11,04,37,9.30
2010,09,11,04,38,9.30
2010,09,11,04,39,9.30
2010,09,11,04,40,9.30
2010,09,11,04,41,9.30
2010,09,11,04,42,9.30
2010,09,11,04,43,9.30
2010,09,11,04,44,9.30
2010,09,11,04,45,9.30
2010,09,11,04,46,9.30
2010,09,11,04,47,9.40
2010,09,11,04,48,9.40
2010,09,11,04,49,9.40
2010,09,11,04,50,9.40
2010,09,11,04,51,9.40
2010,09,11,04,52,9.50
2010,09,11,04,53,9.50
2010,09,11,04,54,9.50
2010,09,11,04,55,9.50
2010,09,11,04,56,9.50
2010,09,11,04,57,9.50
2010,09,11,04,58,9.50
2010,09,11,04,59,9.50
2010,09,11,05,00,9.50
2010,09,11,05,01,9.50
2010,09,11,05,02,9.40
2010,09,11,05,03,9.40
2010,09,11,05,04,9.40
2010,09,11,05,05,9.40
2010,09,11,05,06,9.40
2010,09,11,05,07,9.40
2010,09,11,05,08,9.40
2010,09,11,05,09,9.40
2010,09,11,05,10,9.40
2010,09,11,05,11,9.40
2010,09,11,05,12,9.40
2010,09,11,05,13,9.40
2010,09,11,05,14,9.40
2010,09,11,05,15,9.40
2010,09,11,05,16,9.40
2010,09,11,05,17,9.40
2010,09,11,05,18,9.40
2010,09,11,05,19,9.40
2010,09,11,05,20,9.40
2010,09,11,05,21,9.30
2010,09,11,05,22,9.30
2010,09,11,05,23,9.30
2010,09,11,05,24,9.30
2010,09,11,05,25,9.30
2010,09,11,05,26,9.30
2010,09,11,05,27,9.20
2010,09,11,05,28,9.20
2010,09,11,05,29,9.20
2010,09,11,05,30,9.20
2010,09,11,05,31,9.20
2010,09,11,05,32,9.20
2010,09,11,05,33,9.20
2010,09,11,05,34,9.20
2010,09,11,05,35,9.10
2010,09,11,05,36,9.10
2010,09,11,05,37,9.10
2010,09,11,05,38,9.10
2010,09,11,05,39,9.10
2010,09,11,05,40,9.10
2010,09,11,05,41,9.10
2010,09,11,05,42,9.00
2010,09,11,05,43,9.00
2010,09,11,05,44,9.00
2010,09,11,05,45,9.00
2010,09,11,05,46,9.00
2010,09,11,05,47,8.90
2010,09,11,05,48,8.90
2010,09,11,05,49,8.90
2010,09,11,05,50,8.90
2010,09,11,05,51,8.90
2010,09,11,05,52,8.80
2010,09,11,05,53,8.80
2010,09,11,05,54,8.80
2010,09,11,05,55,8.80
2010,09,11,05,56,8.80
2010,09,11,05,57,8.80
2010,09,11,05,58,8.80
2010,09,11,05,59,8.80
2010,09,11,06,00,8.80
2010,09,11,06,01,8.80
2010,09,11,06,02,8.80
2010,09,11,06,03,8.80
2010,09,11,06,04,8.80
2010,09,11,06,05,8.90
2010,09,11,06,06,9.00
2010,09,11,06,07,9.00
2010,09,11,06,08,9.10
2010,09,11,06,09,9.10
2010,09,11,06,10,9.20
2010,09,11,06,11,9.20
2010,09,11,06,12,9.30
2010,09,11,06,13,9.30
2010,09,11,06,14,9.40
2010,09,11,06,15,9.40
2010,09,11,06,16,9.50
2010,09,11,06,17,9.50
2010,09,11,06,18,9.60
2010,09,11,06,19,9.60
2010,09,11,06,20,9.60
2010,09,11,06,21,9.70
2010,09,11,06,22,9.70
2010,09,11,06,23,9.70
2010,09,11,06,24,9.70
2010,09,11,06,25,9.70
2010,09,11,06,26,9.70
2010,09,11,06,27,9.80
2010,09,11,06,28,9.80
2010,09,11,06,29,9.80
2010,09,11,06,30,9.80
2010,09,11,06,31,9.70
2010,09,11,06,32,9.70
2010,09,11,06,33,9.70
2010,09,11,06,34,9.70
2010,09,11,06,35,9.70
2010,09,11,06,36,9.60
2010,09,11,06,37,9.60
2010,09,11,06,38,9.60
2010,09,11,06,39,9.60
2010,09,11,06,40,9.60
2010,09,11,06,41,9.60
2010,09,11,06,42,9.60
2010,09,11,06,43,9.60
2010,09,11,06,44,9.60
2010,09,11,06,45,9.60
2010,09,11,06,46,9.60
2010,09,11,06,47,9.60
2010,09,11,06,48,9.60
2010,09,11,06,49,9.60
2010,09,11,06,50,9.60
2010,09,11,06,51,9.60
2010,09,11,06,52,9.60
2010,09,11,06,53,9.60
2010,09,11,06,54,9.50
2010,09,11,06,55,9.50
2010,09,11,06,56,9.50
2010,09,11,06,57,9.40
2010,09,11,06,58,9.40
2010,09,11,06,59,9.40
2010,09,11,07,00,9.40
2010,09,11,07,01,9.40
2010,09,11,07,02,9.40
2010,09,11,07,03,9.30
2010,09,11,07,04,9.30
2010,09,11,07,05,9.30
2010,09,11,07,06,9.30
2010,09,11,07,07,9.30
2010,09,11,07,08,9.30
2010,09,11,07,09,9.30
2010,09,11,07,10,9.30
2010,09,11,07,11,9.30
2010,09,11,07,12,9.30
2010,09,11,07,13,9.30
2010,09,11,07,14,9.30
2010,09,11,07,15,9.30
2010,09,11,07,16,9.30
2010,09,11,07,17,9.30
2010,09,11,07,18,9.30
2010,09,11,07,19,9.30
2010,09,11,07,20,9.40
2010,09,11,07,21,9.40
2010,09,11,07,22,9.50
2010,09,11,07,23,9.50
2010,09,11,07,24,9.60
2010,09,11,07,25,9.60
2010,09,11,07,26,9.60
2010,09,11,07,27,9.70
2010,09,11,07,28,9.70
2010,09,11,07,29,9.80
2010,09,11,07,30,9.80
2010,09,11,07,31,9.90
2010,09,11,07,32,9.90
2010,09,11,07,33,10.00
2010,09,11,07,34,10.00
2010,09,11,07,35,10.10
2010,09,11,07,36,10.20
2010,09,11,07,37,10.20
2010,09,11,07,38,10.30
2010,09,11,07,39,10.30
2010,09,11,07,40,10.30
2010,09,11,07,41,10.40
2010,09,11,07,42,10.40
2010,09,11,07,43,10.40
2010,09,11,07,44,10.50
2010,09,11,07,45,10.50
2010,09,11,07,46,10.50
2010,09,11,07,47,10.60
2010,09,11,07,48,10.60
2010,09,11,07,49,10.70
2010,09,11,07,50,10.70
2010,09,11,07,51,10.80
2010,09,11,07,52,10.80
2010,09,11,07,53,10.80
2010,09,11,07,54,10.90
2010,09,11,07,55,10.90
2010,09,11,07,56,11.00
2010,09,11,07,57,11.00
2010,09,11,07,58,11.10
2010,09,11,07,59,11.10
2010,09,11,08,00,11.10
2010,09,11,08,01,11.20
2010,09,11,08,02,11.20
2010,09,11,08,03,11.20
2010,09,11,08,04,11.20
2010,09,11,08,05,11.20
2010,09,11,08,06,11.20
2010,09,11,08,07,11.20
2010,09,11,08,08,11.20
2010,09,11,08,09,11.20
2010,09,11,08,10,11.30
2010,09,11,08,11,11.30
2010,09,11,08,12,11.30
2010,09,11,08,13,11.30
2010,09,11,08,14,11.30
2010,09,11,08,15,11.40
2010,09,11,08,16,11.40
2010,09,11,08,17,11.40
2010,09,11,08,18,11.40
2010,09,11,08,19,11.40
2010,09,11,08,20,11.50
2010,09,11,08,21,11.50
2010,09,11,08,22,11.60
2010,09,11,08,23,11.60
2010,09,11,08,24,11.60
2010,09,11,08,25,11.70
2010,09,11,08,26,11.70
2010,09,11,08,27,11.70
2010,09,11,08,28,11.70
2010,09,11,08,29,11.70
2010,09,11,08,30,11.70
2010,09,11,08,31,11.70
2010,09,11,08,32,11.70
2010,09,11,08,33,11.70
2010,09,11,08,34,11.80
2010,09,11,08,35,11.80
2010,09,11,08,36,11.80
2010,09,11,08,37,11.80
2010,09,11,08,38,11.90
2010,09,11,08,39,11.90
2010,09,11,08,40,11.90
2010,09,11,08,41,12.00
2010,09,11,08,42,12.00
2010,09,11,08,43,12.10
2010,09,11,08,44,12.20
2010,09,11,08,45,12.30
2010,09,11,08,46,12.40
2010,09,11,08,47,12.50
2010,09,11,08,48,12.50
2010,09,11,08,49,12.60
2010,09,11,08,50,12.60
2010,09,11,08,51,12.70
2010,09,11,08,52,12.80
2010,09,11,08,53,12.90
2010,09,11,08,54,13.00
2010,09,11,08,55,13.00
2010,09,11,08,56,13.10
2010,09,11,08,57,13.20
2010,09,11,08,58,13.20
2010,09,11,08,59,13.20
2010,09,11,09,00,13.20
2010,09,11,09,01,13.20
2010,09,11,09,02,13.20
2010,09,11,09,03,13.10
2010,09,11,09,04,13.00
2010,09,11,09,05,13.00
2010,09,11,09,06,12.90
2010,09,11,09,07,12.90
2010,09,11,09,08,12.90
2010,09,11,09,09,12.90
2010,09,11,09,10,12.90
2010,09,11,09,11,12.90
2010,09,11,09,12,13.00
2010,09,11,09,13,13.00
2010,09,11,09,14,13.10
2010,09,11,09,15,13.10
2010,09,11,09,16,13.10
2010,09,11,09,17,13.20
2010,09,11,09,18,13.20
2010,09,11,09,19,13.20
2010,09,11,09,20,13.30
2010,09,11,09,21,13.30
2010,09,11,09,22,13.30
2010,09,11,09,23,13.30
2010,09,11,09,24,13.40
2010,09,11,09,25,13.40
2010,09,11,09,26,13.40
2010,09,11,09,27,13.50
2010,09,11,09,28,13.50
2010,09,11,09,29,13.40
2010,09,11,09,30,13.40
2010,09,11,09,31,13.50
2010,09,11,09,32,13.50
2010,09,11,09,33,13.60
2010,09,11,09,34,13.60
2010,09,11,09,35,13.70
2010,09,11,09,36,13.80
2010,09,11,09,37,13.80
2010,09,11,09,38,13.90
2010,09,11,09,39,14.00
2010,09,11,09,40,14.10
2010,09,11,09,41,14.10
2010,09,11,09,42,14.20
2010,09,11,09,43,14.30
2010,09,11,09,44,14.30
2010,09,11,09,45,14.40
2010,09,11,09,46,14.40
2010,09,11,09,47,14.40
2010,09,11,09,48,14.50
2010,09,11,09,49,14.60
2010,09,11,09,50,14.60
2010,09,11,09,51,14.60
2010,09,11,09,52,14.60
2010,09,11,09,53,14.60
2010,09,11,09,54,14.60
2010,09,11,09,55,14.60
2010,09,11,09,56,14.60
2010,09,11,09,57,14.60
2010,09,11,09,58,14.60
2010,09,11,09,59,14.60
2010,09,11,10,00,14.50
2010,09,11,10,01,14.40
2010,09,11,10,02,14.40
2010,09,11,10,03,14.30
2010,09,11,10,04,14.30
2010,09,11,10,05,14.20
2010,09,11,10,06,14.20
2010,09,11,10,07,14.10
2010,09,11,10,08,14.10
2010,09,11,10,09,14.00
2010,09,11,10,10,14.00
2010,09,11,10,11,14.00
2010,09,11,10,12,13.90
2010,09,11,10,13,13.90
2010,09,11,10,14,13.90
2010,09,11,10,15,13.90
2010,09,11,10,16,13.90
2010,09,11,10,17,13.90
2010,09,11,10,18,13.90
2010,09,11,10,19,13.90
2010,09,11,10,20,13.90
2010,09,11,10,21,13.90
2010,09,11,10,22,14.00
2010,09,11,10,23,14.00
2010,09,11,10,24,14.00
2010,09,11,10,25,14.00
2010,09,11,10,26,14.00
2010,09,11,10,27,14.00
2010,09,11,10,28,14.10
2010,09,11,10,29,14.10
2010,09,11,10,30,14.10
2010,09,11,10,31,14.20
2010,09,11,10,32,14.20
2010,09,11,10,33,14.20
2010,09,11,10,34,14.30
2010,09,11,10,35,14.30
2010,09,11,10,36,14.40
2010,09,11,10,37,14.50
2010,09,11,10,38,14.50
2010,09,11,10,39,14.60
2010,09,11,10,40,14.60
2010,09,11,10,41,14.70
2010,09,11,10,42,14.70
2010,09,11,10,43,14.80
2010,09,11,10,44,14.80
2010,09,11,10,45,15.00
2010,09,11,10,46,15.00
2010,09,11,10,47,15.00
2010,09,11,10,48,15.00
2010,09,11,10,49,15.10
2010,09,11,10,50,15.20
2010,09,11,10,51,15.30
2010,09,11,10,52,15.50
2010,09,11,10,53,15.60
2010,09,11,10,54,15.70
2010,09,11,10,55,15.70
2010,09,11,10,56,15.80
2010,09,11,10,57,15.80
2010,09,11,10,58,15.90
2010,09,11,10,59,15.90
2010,09,11,11,00,15.90
2010,09,11,11,01,15.90
2010,09,11,11,02,15.90
2010,09,11,11,03,15.90
2010,09,11,11,04,15.90
2010,09,11,11,05,15.90
2010,09,11,11,06,15.90
2010,09,11,11,07,15.90
2010,09,11,11,08,16.00
2010,09,11,11,09,16.00
2010,09,11,11,10,16.10
2010,09,11,11,11,16.10
2010,09,11,11,12,16.20
2010,09,11,11,13,16.20
2010,09,11,11,14,16.20
2010,09,11,11,15,16.20
2010,09,11,11,16,16.20
2010,09,11,11,17,16.30
2010,09,11,11,18,16.30
2010,09,11,11,19,16.40
2010,09,11,11,20,16.50
2010,09,11,11,21,16.50
2010,09,11,11,22,16.50
2010,09,11,11,23,16.60
2010,09,11,11,24,16.60
2010,09,11,11,25,16.60
2010,09,11,11,26,16.60
2010,09,11,11,27,16.60
2010,09,11,11,28,16.70
2010,09,11,11,29,16.70
2010,09,11,11,30,16.80
2010,09,11,11,31,16.80
2010,09,11,11,32,16.90
2010,09,11,11,33,17.00
2010,09,11,11,34,17.00
2010,09,11,11,35,17.10
2010,09,11,11,36,17.10
2010,09,11,11,37,17.10
2010,09,11,11,38,17.10
2010,09,11,11,39,17.10
2010,09,11,11,40,17.00
2010,09,11,11,41,16.80
2010,09,11,11,42,16.70
2010,09,11,11,43,16.50
2010,09,11,11,44,16.30
2010,09,11,11,45,16.10
2010,09,11,11,46,15.90
2010,09,11,11,47,15.70
2010,09,11,11,48,15.60
2010,09,11,11,49,15.40
2010,09,11,11,50,15.30
2010,09,11,11,51,15.20
2010,09,11,11,52,15.00
2010,09,11,11,53,15.00
2010,09,11,11,54,15.00
2010,09,11,11,55,15.00
2010,09,11,11,56,15.00
2010,09,11,11,57,15.00
2010,09,11,11,58,15.00
2010,09,11,11,59,15.10
2010,09,11,12,00,15.10
2010,09,11,12,01,15.00
2010,09,11,12,02,15.00
2010,09,11,12,03,15.00
2010,09,11,12,04,15.00
2010,09,11,12,05,15.00
2010,09,11,12,06,14.90
2010,09,11,12,07,14.80
2010,09,11,12,08,14.70
2010,09,11,12,09,14.70
2010,09,11,12,10,14.70
2010,09,11,12,11,14.60
2010,09,11,12,12,14.50
2010,09,11,12,13,14.40
2010,09,11,12,14,14.40
2010,09,11,12,15,14.40
2010,09,11,12,16,14.40
2010,09,11,12,17,14.40
2010,09,11,12,18,14.40
2010,09,11,12,19,14.30
2010,09,11,12,20,14.20
2010,09,11,12,21,14.00
2010,09,11,12,22,13.80
2010,09,11,12,23,13.70
2010,09,11,12,24,13.60
2010,09,11,12,25,13.50
2010,09,11,12,26,13.40
2010,09,11,12,27,13.40
2010,09,11,12,28,13.40
2010,09,11,12,29,13.30
2010,09,11,12,30,13.30
2010,09,11,12,31,13.30
2010,09,11,12,32,13.30
2010,09,11,12,33,13.30
2010,09,11,12,34,13.30
2010,09,11,12,35,13.20
2010,09,11,12,36,13.00
2010,09,11,12,37,13.00
2010,09,11,12,38,12.90
2010,09,11,12,39,12.90
2010,09,11,12,40,13.00
2010,09,11,12,41,13.00
2010,09,11,12,42,13.10
2010,09,11,12,43,13.10
2010,09,11,12,44,13.20
2010,09,11,12,45,13.20
2010,09,11,12,46,13.20
2010,09,11,12,47,13.30
2010,09,11,12,48,13.30
2010,09,11,12,49,13.40
2010,09,11,12,50,13.50
2010,09,11,12,51,13.60
2010,09,11,12,52,13.60
2010,09,11,12,53,13.70
2010,09,11,12,54,13.80
2010,09,11,12,55,13.80
2010,09,11,12,56,13.80
2010,09,11,12,57,13.80
2010,09,11,12,58,13.80
2010,09,11,12,59,13.90
2010,09,11,13,00,13.90
2010,09,11,13,01,13.90
2010,09,11,13,02,14.00
2010,09,11,13,03,14.10
2010,09,11,13,04,14.10
2010,09,11,13,05,14.10
2010,09,11,13,06,14.20
2010,09,11,13,07,14.20
2010,09,11,13,08,14.30
2010,09,11,13,09,14.40
2010,09,11,13,10,14.50
2010,09,11,13,11,14.50
2010,09,11,13,12,14.50
2010,09,11,13,13,14.60
2010,09,11,13,14,14.60
2010,09,11,13,15,14.70
2010,09,11,13,16,14.80
2010,09,11,13,17,14.90
2010,09,11,13,18,14.90
2010,09,11,13,19,14.90
2010,09,11,13,20,14.90
2010,09,11,13,21,14.90
2010,09,11,13,22,14.90
2010,09,11,13,23,15.00
2010,09,11,13,24,15.00
2010,09,11,13,25,15.00
2010,09,11,13,26,15.00
2010,09,11,13,27,15.00
2010,09,11,13,28,15.00
2010,09,11,13,29,15.00
2010,09,11,13,30,15.00
2010,09,11,13,31,15.00
2010,09,11,13,32,15.00
2010,09,11,13,33,14.80
2010,09,11,13,34,14.50
2010,09,11,13,35,14.20
2010,09,11,13,36,14.10
2010,09,11,13,37,13.90
2010,09,11,13,38,13.80
2010,09,11,13,39,13.80
2010,09,11,13,40,13.80
2010,09,11,13,41,13.80
2010,09,11,13,42,13.80
2010,09,11,13,43,13.80
2010,09,11,13,44,13.80
2010,09,11,13,45,13.90
2010,09,11,13,46,13.90
2010,09,11,13,47,14.00
2010,09,11,13,48,14.00
2010,09,11,13,49,14.00
2010,09,11,13,50,14.10
2010,09,11,13,51,14.20
2010,09,11,13,52,14.30
2010,09,11,13,53,14.30
2010,09,11,13,54,14.30
2010,09,11,13,55,14.20
2010,09,11,13,56,14.10
2010,09,11,13,57,14.00
2010,09,11,13,58,13.90
2010,09,11,13,59,13.80
2010,09,11,14,00,13.80
2010,09,11,14,01,13.70
2010,09,11,14,02,13.70
2010,09,11,14,03,13.70
2010,09,11,14,04,13.70
2010,09,11,14,05,13.70
2010,09,11,14,06,13.60
2010,09,11,14,07,13.60
2010,09,11,14,08,13.50
2010,09,11,14,09,13.50
2010,09,11,14,10,13.60
2010,09,11,14,11,13.60
2010,09,11,14,12,13.60
2010,09,11,14,13,13.60
2010,09,11,14,14,13.60
2010,09,11,14,15,13.60
2010,09,11,14,16,13.60
2010,09,11,14,17,13.60
2010,09,11,14,18,13.60
2010,09,11,14,19,13.70
2010,09,11,14,20,13.70
2010,09,11,14,21,13.80
2010,09,11,14,22,13.80
2010,09,11,14,23,13.90
2010,09,11,14,24,13.90
2010,09,11,14,25,14.00
2010,09,11,14,26,14.10
2010,09,11,14,27,14.20
2010,09,11,14,28,14.20
2010,09,11,14,29,14.20
2010,09,11,14,30,14.20
2010,09,11,14,31,14.20
2010,09,11,14,32,14.30
2010,09,11,14,33,14.40
2010,09,11,14,34,14.40
2010,09,11,14,35,14.50
2010,09,11,14,36,14.50
2010,09,11,14,37,14.50
2010,09,11,14,38,14.60
2010,09,11,14,39,14.60
2010,09,11,14,40,14.60
2010,09,11,14,41,14.70
2010,09,11,14,42,14.70
2010,09,11,14,43,14.70
2010,09,11,14,44,14.70
2010,09,11,14,45,14.70
2010,09,11,14,46,14.70
2010,09,11,14,47,14.70
2010,09,11,14,48,14.80
2010,09,11,14,49,14.80
2010,09,11,14,50,14.80
2010,09,11,14,51,14.90
2010,09,11,14,52,15.00
2010,09,11,14,53,15.00
2010,09,11,14,54,15.00
2010,09,11,14,55,15.10
2010,09,11,14,56,15.20
2010,09,11,14,57,15.30
2010,09,11,14,58,15.40
2010,09,11,14,59,15.40
2010,09,11,15,00,15.40
2010,09,11,15,01,15.40
2010,09,11,15,02,15.50
2010,09,11,15,03,15.50
2010,09,11,15,04,15.50
2010,09,11,15,05,15.60
2010,09,11,15,06,15.60
2010,09,11,15,07,15.60
2010,09,11,15,08,15.50
2010,09,11,15,09,15.30
2010,09,11,15,10,15.00
2010,09,11,15,11,15.00
2010,09,11,15,12,14.80
2010,09,11,15,13,14.60
2010,09,11,15,14,14.50
2010,09,11,15,15,14.40
2010,09,11,15,16,14.30
2010,09,11,15,17,14.30
2010,09,11,15,18,14.20
2010,09,11,15,19,14.20
2010,09,11,15,20,14.10
2010,09,11,15,21,14.10
2010,09,11,15,22,14.10
2010,09,11,15,23,14.10
2010,09,11,15,24,14.10
2010,09,11,15,25,14.10
2010,09,11,15,26,14.10
2010,09,11,15,27,14.10
2010,09,11,15,28,14.20
2010,09,11,15,29,14.20
2010,09,11,15,30,14.30
2010,09,11,15,31,14.40
2010,09,11,15,32,14.40
2010,09,11,15,33,14.50
2010,09,11,15,34,14.60
2010,09,11,15,35,14.70
2010,09,11,15,36,14.70
2010,09,11,15,37,14.80
2010,09,11,15,38,14.90
2010,09,11,15,39,15.00
2010,09,11,15,40,15.00
2010,09,11,15,41,15.00
2010,09,11,15,42,15.00
2010,09,11,15,43,15.00
2010,09,11,15,44,15.00
2010,09,11,15,45,15.00
2010,09,11,15,46,15.00
2010,09,11,15,47,15.00
2010,09,11,15,48,15.00
2010,09,11,15,49,15.00
2010,09,11,15,50,15.00
2010,09,11,15,51,15.00
2010,09,11,15,52,15.00
2010,09,11,15,53,15.00
2010,09,11,15,54,15.00
2010,09,11,15,55,15.00
2010,09,11,15,56,15.00
2010,09,11,15,57,15.00
2010,09,11,15,58,15.00
2010,09,11,15,59,15.00
2010,09,11,16,00,15.00
2010,09,11,16,01,15.10
2010,09,11,16,02,15.20
2010,09,11,16,03,15.30
2010,09,11,16,04,15.40
2010,09,11,16,05,15.40
2010,09,11,16,06,15.40
2010,09,11,16,07,15.40
2010,09,11,16,08,15.40
2010,09,11,16,09,15.30
2010,09,11,16,10,15.20
2010,09,11,16,11,15.20
2010,09,11,16,12,15.10
2010,09,11,16,13,15.00
2010,09,11,16,14,15.00
2010,09,11,16,15,15.00
2010,09,11,16,16,15.00
2010,09,11,16,17,14.90
2010,09,11,16,18,14.80
2010,09,11,16,19,14.70
2010,09,11,16,20,14.70
2010,09,11,16,21,14.60
2010,09,11,16,22,14.60
2010,09,11,16,23,14.60
2010,09,11,16,24,14.60
2010,09,11,16,25,14.50
2010,09,11,16,26,14.50
2010,09,11,16,27,14.50
2010,09,11,16,28,14.50
2010,09,11,16,29,14.50
2010,09,11,16,30,14.50
2010,09,11,16,31,14.40
2010,09,11,16,32,14.30
2010,09,11,16,33,14.20
2010,09,11,16,34,14.10
2010,09,11,16,35,14.00
2010,09,11,16,36,14.00
2010,09,11,16,37,13.90
2010,09,11,16,38,13.90
2010,09,11,16,39,13.90
2010,09,11,16,40,13.80
2010,09,11,16,41,13.80
2010,09,11,16,42,13.80
2010,09,11,16,43,13.80
2010,09,11,16,44,13.80
2010,09,11,16,45,13.80
2010,09,11,16,46,13.80
2010,09,11,16,47,13.80
2010,09,11,16,48,13.70
2010,09,11,16,49,13.70
2010,09,11,16,50,13.70
2010,09,11,16,51,13.70
2010,09,11,16,52,13.70
2010,09,11,16,53,13.80
2010,09,11,16,54,13.80
2010,09,11,16,55,13.80
2010,09,11,16,56,13.80
2010,09,11,16,57,13.80
2010,09,11,16,58,13.80
2010,09,11,16,59,13.90
2010,09,11,17,00,13.90
2010,09,11,17,01,13.90
2010,09,11,17,02,13.80
2010,09,11,17,03,13.80
2010,09,11,17,04,13.80
2010,09,11,17,05,13.90
2010,09,11,17,06,13.90
2010,09,11,17,07,13.90
2010,09,11,17,08,13.90
2010,09,11,17,09,14.00
2010,09,11,17,10,14.00
2010,09,11,17,11,14.00
2010,09,11,17,12,14.10
2010,09,11,17,13,14.10
2010,09,11,17,14,14.10
2010,09,11,17,15,14.20
2010,09,11,17,16,14.20
2010,09,11,17,17,14.20
2010,09,11,17,18,14.30
2010,09,11,17,19,14.30
2010,09,11,17,20,14.40
2010,09,11,17,21,14.40
2010,09,11,17,22,14.40
2010,09,11,17,23,14.40
2010,09,11,17,24,14.40
2010,09,11,17,25,14.40
2010,09,11,17,26,14.40
2010,09,11,17,27,14.30
2010,09,11,17,28,14.30
2010,09,11,17,29,14.30
2010,09,11,17,30,14.20
2010,09,11,17,31,14.20
2010,09,11,17,32,14.10
2010,09,11,17,33,14.10
2010,09,11,17,34,14.10